Weather History for KSLE - October, 2012

Change the Weather History Date:

Tuesday, October 9, 2012

  Actual Average Record
Temperature  
Mean Temperature 54 °F 55 °F  
Max Temperature 69 °F 67 °F 91 °F (1936)
Min Temperature 38 °F 43 °F 25 °F (1985)
Degree Days  
Heating Degree Days 11 10  
Month to date heating degree days 59 75  
Since 1 July heating degree days 160 240  
Cooling Degree Days 0 0  
Month to date cooling degree days 0 0  
Year to date cooling degree days 317 289  
Growing Degree Days 3 (Base 50)    
Moisture  
Dew Point 43 °F    
Average Humidity 70    
Maximum Humidity 100    
Minimum Humidity 39    
Precipitation  
Precipitation 0.00 in 0.07 in 2.44 in (1955)
Month to date precipitation 0.00 0.56  
Year to date precipitation 32.14 23.84  
Snow  
Snow 0.00 in - - ()
Month to date snowfall 0.0  
Snow Depth 0.00 in    
Sea Level Pressure  
Sea Level Pressure 30.06 in    
Wind  
Wind Speed 3 mph (NNW)    
Max Wind Speed 8 mph    
Max Gust Speed 10 mph    
Visibility 10 miles    
Events Fog    
T = Trace of Precipitation, MM = Missing Value Source: NWS Daily Summary

Daily Weather History Graph

Daily Weather History Graph

Search for Another Location

Airport or City:

Trip Planner

Search our weather history database for the weather conditions in past years. The results will help you decide how hot, cold, wet, or windy it might be!

Date:

Astronomy

Oct. 09, 2012 Rise Set
Actual Time 7:20 AM PDT 6:36 PM PDT
Civil Twilight 6:51 AM PDT 7:06 PM PDT
Nautical Twilight 6:17 AM PDT 7:39 PM PDT
Astronomical Twilight 5:43 AM PDT 8:13 PM PDT
Moon 12:47 AM PDT (10/9) 3:20 PM PDT (10/9)
Length of Visible Light 12h 14m
Length of Day
11h 16m
Waning Crescent, 35% of the Moon is Illuminated
Oct 9
Waning Crescent
Oct 15
New
Oct 21
First Quarter
Oct 29
Full
Nov 6
Last Quarter

Hourly Weather History & Observations

Time (PDT) Temp. Windchill Dew Point Humidity Pressure Visibility Wind Dir Wind Speed Gust Speed Precip Events Conditions
12:56 AM 45.0 °F 43.5 °F 42.1 °F 90% 30.06 in 10.0 mi SE 3.5 mph - N/A   Clear
1:56 AM 43.0 °F - 41.0 °F 93% 30.08 in 10.0 mi Calm Calm - N/A   Clear
2:56 AM 42.1 °F - 39.9 °F 92% 30.09 in 10.0 mi Calm Calm - N/A   Clear
3:56 AM 41.0 °F 38.0 °F 39.0 °F 93% 30.09 in 10.0 mi South 4.6 mph - N/A   Clear
4:56 AM 41.0 °F - 39.0 °F 93% 30.09 in 10.0 mi Calm Calm - N/A   Clear
5:56 AM 39.9 °F 37.8 °F 39.0 °F 97% 30.10 in 10.0 mi South 3.5 mph - N/A   Clear
6:56 AM 39.0 °F - 37.9 °F 96% 30.11 in 10.0 mi Calm Calm - N/A   Clear
7:56 AM 41.0 °F - 39.9 °F 96% 30.11 in 10.0 mi Calm Calm - N/A Fog Patches of Fog
8:56 AM 46.9 °F - 43.0 °F 86% 30.11 in 7.0 mi Calm Calm - N/A Fog Patches of Fog
9:21 AM 46.4 °F 44.3 °F 44.6 °F 93% 30.12 in 8.0 mi NW 4.6 mph - N/A Fog Patches of Fog
9:56 AM 48.0 °F - 45.0 °F 89% 30.12 in 7.0 mi WNW 3.5 mph - N/A Fog Patches of Fog
10:56 AM 53.1 °F - 45.0 °F 74% 30.11 in 10.0 mi NW 5.8 mph - N/A Fog Patches of Fog
11:56 AM 55.9 °F - 46.0 °F 69% 30.09 in 10.0 mi Variable 3.5 mph - N/A   Clear
12:56 PM 61.0 °F - 46.0 °F 58% 30.07 in 10.0 mi Variable 3.5 mph - N/A   Clear
1:56 PM 64.0 °F - 45.0 °F 50% 30.04 in 10.0 mi North 6.9 mph - N/A   Clear
2:56 PM 66.0 °F - 45.0 °F 47% 30.02 in 10.0 mi North 4.6 mph - N/A   Clear
3:56 PM 66.9 °F - 44.1 °F 44% 30.01 in 10.0 mi North 4.6 mph - N/A   Clear
4:56 PM 68.0 °F - 43.0 °F 40% 29.99 in 10.0 mi North 4.6 mph - N/A   Clear
5:56 PM 66.0 °F - 44.1 °F 45% 29.99 in 10.0 mi North 5.8 mph - N/A   Clear
6:56 PM 60.1 °F - 44.1 °F 55% 29.99 in 10.0 mi Calm Calm - N/A   Clear
7:56 PM 53.1 °F - 44.1 °F 71% 30.00 in 10.0 mi Calm Calm - N/A   Clear
8:56 PM 53.1 °F - 45.0 °F 74% 30.00 in 10.0 mi Calm Calm - N/A   Clear
9:56 PM 48.9 °F - 44.1 °F 83% 30.00 in 10.0 mi Calm Calm - N/A   Clear
10:56 PM 48.9 °F - 43.0 °F 80% 30.01 in 10.0 mi Calm Calm - N/A   Clear
11:56 PM 46.9 °F - 44.1 °F 90% 30.01 in 10.0 mi Calm Calm - N/A   Clear